Location: Austin
(30.3000°N, 97.7500°W)
Time: 20:34:07
(UTC-06:00)

Cosmos 676 Rocket - Pass Details

Date: 31 October 2024
Orbit: 750 x 781 km, 74.0° (Epoch: 05 November)

Event Time Altitude Azimuth Distance (km) Brightness Sun altitude
Rises 06:54:38 0° 336° (NNW) 3,264 6.9 -11.4°
Reaches altitude 10° 06:57:06 10° 331° (NNW) 2,330 6.1 -10.9°
Maximum altitude 07:02:09 47° 258° (WSW) 1,018 4.3 -9.8°
Drops below altitude 10° 07:07:09 10° 186° (S) 2,301 6.6 -8.8°
Sets 07:09:34 0° 180° (S) 3,219 7.4 -8.3°
